Lander, WY

3:18 PM MDT on May 24, 2017 (GMT -0600)
Hunt

Weather History for KLND - April, 2013

Change the Weather History Date:

Friday, April 5, 2013

  Actual Average Record
Temperature  
Mean Temperature 51 °F 41 °F  
Max Temperature 64 °F 53 °F 77 °F (1991)
Min Temperature 37 °F 29 °F -3 °F (1918)
Degree Days  
Heating Degree Days 14 24  
Month to date heating degree days 85 122  
Since 1 July heating degree days 6345 6741  
Cooling Degree Days 0 0  
Month to date cooling degree days 0 0  
Year to date cooling degree days 0 0  
Growing Degree Days 3 (Base 50)    
Moisture  
Dew Point 24 °F    
Average Humidity 32    
Maximum Humidity 45    
Minimum Humidity 19    
Precipitation  
Precipitation 0.00 in 0.05 in 1.60 in (1921)
Month to date precipitation 0.00 0.25  
Year to date precipitation 2.40 2.40  
Snow  
Snow 0.00 in 0.60 in - ()
Month to date snowfall 0.0 2.9  
Since 1 July snowfall 57.3 72.6  
Snow Depth 0.00 in    
Sea Level Pressure  
Sea Level Pressure 29.69 in    
Wind  
Wind Speed 11 mph (West)    
Max Wind Speed 38 mph    
Max Gust Speed 46 mph    
Visibility 10 miles    
Events      
T = Trace of Precipitation, MM = Missing Value Source: NWS Daily Summary

Daily Weather History Graph

Daily Weather History Graph

Search for Another Location

Airport or City:

Trip Planner

Search our weather history database for the weather conditions in past years. The results will help you decide how hot, cold, wet, or windy it might be!

Date:

Astronomy

Apr. 05, 2013 Rise Set
Actual Time 6:49 AM MDT 7:46 PM MDT
Civil Twilight 6:20 AM MDT 8:14 PM MDT
Nautical Twilight 5:46 AM MDT 8:49 PM MDT
Astronomical Twilight 5:10 AM MDT 9:25 PM MDT
Moon 4:05 AM MDT (4/5) 3:07 PM MDT (4/5)
Length of Visible Light 13h 54m
Length of Day
12h 56m
Waning Crescent, 23% of the Moon is Illuminated
Apr 5
Waning Crescent
Apr 10
New
Apr 18
First Quarter
Apr 25
Full
May 2
Last Quarter

Hourly Weather History & Observations

Time (MDT) Temp. Windchill Dew Point Humidity Pressure Visibility Wind Dir Wind Speed Gust Speed Precip Events Conditions
12:53 AM 57.0 °F - 21.9 °F 26% 29.73 in 10.0 mi Variable 5.8 mph - N/A   Mostly Cloudy
1:53 AM 54.0 °F - 23.0 °F 30% 29.73 in 10.0 mi SW 5.8 mph - N/A   Partly Cloudy
2:53 AM 54.0 °F - 24.1 °F 31% 29.70 in 10.0 mi SSW 4.6 mph - N/A   Partly Cloudy
3:53 AM 52.0 °F - 25.0 °F 35% 29.69 in 10.0 mi WSW 11.5 mph - N/A   Mostly Cloudy
4:53 AM 50.0 °F - 25.0 °F 38% 29.68 in 10.0 mi ESE 6.9 mph - N/A   Overcast
5:53 AM 48.9 °F - 26.1 °F 41% 29.67 in 10.0 mi Variable 5.8 mph - N/A   Clear
6:53 AM 54.0 °F - 27.0 °F 35% 29.64 in 10.0 mi SSW 8.1 mph 17.3 mph N/A   Partly Cloudy
7:53 AM 53.1 °F - 28.0 °F 38% 29.65 in 10.0 mi Calm Calm - N/A   Scattered Clouds
8:53 AM 55.9 °F - 28.9 °F 36% 29.65 in 10.0 mi SW 15.0 mph 18.4 mph N/A   Mostly Cloudy
9:53 AM 53.1 °F - 30.0 °F 41% 29.66 in 10.0 mi NNW 10.4 mph - N/A   Mostly Cloudy
10:53 AM 55.0 °F - 30.9 °F 40% 29.66 in 10.0 mi WNW 8.1 mph - N/A   Overcast
11:53 AM 57.0 °F - 32.0 °F 39% 29.66 in 10.0 mi North 13.8 mph - N/A   Overcast
12:53 PM 61.0 °F - 28.9 °F 30% 29.62 in 10.0 mi Variable 5.8 mph - N/A   Mostly Cloudy
1:50 PM 62.6 °F - 21.2 °F 20% 29.75 in 10.0 mi West 18.4 mph 21.9 mph N/A   Partly Cloudy
1:53 PM 62.1 °F - 21.0 °F 21% 29.60 in 10.0 mi WNW 16.1 mph 21.9 mph N/A   Partly Cloudy
2:53 PM 59.0 °F - 25.0 °F 27% 29.60 in 10.0 mi WSW 25.3 mph 38.0 mph N/A   Clear
3:53 PM 57.0 °F - 23.0 °F 27% 29.63 in 10.0 mi West 26.5 mph 36.8 mph N/A   Clear
4:53 PM 57.9 °F - 15.1 °F 19% 29.66 in 10.0 mi West 27.6 mph 38.0 mph N/A   Clear
5:53 PM 55.0 °F - 19.0 °F 24% 29.69 in 10.0 mi WNW 24.2 mph 35.7 mph N/A   Clear
6:53 PM 54.0 °F - 19.0 °F 25% 29.69 in 10.0 mi WNW 21.9 mph 27.6 mph N/A   Clear
7:53 PM 50.0 °F - 19.0 °F 29% 29.72 in 10.0 mi NW 8.1 mph - N/A   Clear
8:53 PM 48.9 °F - 18.0 °F 29% 29.75 in 10.0 mi NW 8.1 mph 19.6 mph N/A   Clear
9:53 PM 46.9 °F - 19.0 °F 33% 29.82 in 10.0 mi WSW 3.5 mph - N/A   Clear
10:53 PM 44.1 °F 42.5 °F 19.9 °F 38% 29.84 in 10.0 mi East 3.5 mph - N/A   Clear
11:53 PM 41.0 °F 39.0 °F 21.0 °F 45% 29.86 in 10.0 mi SE 3.5 mph - N/A   Clear